TimeCST,TemperatureF,Dew PointF,Humidity,Sea Level PressureIn,VisibilityMPH,Wind Direction,Wind SpeedMPH,Gust SpeedMPH,PrecipitationIn,Events,Conditions,WindDirDegrees,DateUTC
12:56 AM,32.0,24.1,73,29.97,-9999.0,NW,5.8,-,N/A,,Unknown,320,2013-02-14 06:56:00
1:56 AM,32.0,24.1,73,29.98,-9999.0,NNW,6.9,-,N/A,,Unknown,340,2013-02-14 07:56:00
2:56 AM,30.9,23.0,72,29.99,-9999.0,NNW,6.9,-,N/A,,Unknown,330,2013-02-14 08:56:00
3:56 AM,30.0,23.0,75,30.00,-9999.0,WNW,5.8,-,N/A,,Unknown,300,2013-02-14 09:56:00
4:56 AM,28.9,23.0,78,30.01,-9999.0,NW,3.5,-,N/A,,Unknown,310,2013-02-14 10:56:00
5:56 AM,32.0,23.0,69,30.01,-9999.0,NNW,4.6,-,N/A,,Unknown,340,2013-02-14 11:56:00
6:56 AM,35.1,26.1,70,30.04,-9999.0,North,8.1,-,N/A,,Unknown,360,2013-02-14 12:56:00
7:56 AM,36.0,27.0,70,30.07,-9999.0,NNW,5.8,-,N/A,,Unknown,330,2013-02-14 13:56:00
8:56 AM,39.0,28.9,67,30.10,-9999.0,North,4.6,-,N/A,,Unknown,350,2013-02-14 14:56:00
9:56 AM,43.0,30.0,60,30.10,-9999.0,North,12.7,-,N/A,,Unknown,360,2013-02-14 15:56:00
10:56 AM,46.9,30.9,54,30.12,-9999.0,NNE,10.4,-,N/A,,Unknown,20,2013-02-14 16:56:00
11:56 AM,48.9,28.9,46,30.13,-9999.0,NE,9.2,-,N/A,,Unknown,40,2013-02-14 17:56:00
12:56 PM,48.0,28.0,46,30.12,-9999.0,North,10.4,-,N/A,,Unknown,10,2013-02-14 18:56:00
1:56 PM,48.9,28.0,44,30.12,-9999.0,North,8.1,-,N/A,,Unknown,360,2013-02-14 19:56:00
2:56 PM,48.0,28.9,48,30.12,-9999.0,North,10.4,-,N/A,,Unknown,360,2013-02-14 20:56:00
3:56 PM,48.0,26.1,42,30.13,-9999.0,North,17.3,-,N/A,,Unknown,10,2013-02-14 21:56:00
4:56 PM,45.0,32.0,60,30.17,-9999.0,North,15.0,-,N/A,,Unknown,350,2013-02-14 22:56:00
5:56 PM,41.0,33.1,73,30.20,-9999.0,North,17.3,-,N/A,,Unknown,10,2013-02-14 23:56:00
6:56 PM,39.0,35.1,86,30.23,-9999.0,North,8.1,-,N/A,,Unknown,350,2013-02-15 00:56:00
7:56 PM,37.9,34.0,86,30.25,-9999.0,NNW,5.8,-,N/A,,Unknown,330,2013-02-15 01:56:00
8:56 PM,37.0,33.1,86,30.27,-9999.0,NW,5.8,-,N/A,,Unknown,320,2013-02-15 02:56:00
9:56 PM,37.0,32.0,82,30.28,-9999.0,North,12.7,-,N/A,,Unknown,350,2013-02-15 03:56:00
10:56 PM,36.0,25.0,64,30.29,-9999.0,North,13.8,-,N/A,,Unknown,10,2013-02-15 04:56:00
11:56 PM,35.1,19.9,54,30.31,-9999.0,North,16.1,-,N/A,,Unknown,360,2013-02-15 05:56:00